DEIMOS-2

Last updated on Thu Jul 03 2025 00:02:30 GMT+0000 (Coordinated Universal Time)

1 40013U 14033D 25183.59559367 .00001093 00000+0 11282-3 0 9996 2 40013 97.6316 64.6817 0002279 74.2042 285.9429 14.92122319585565
UTC large
Height (km)
Speed (km/s)
/
Latitude / Longitude
Inclination (degrees)
Orbital Period (minutes)
Azimuth
Elevation
Range (km)
Doppler Factor

Next 0 passes for location: London (51.5072 / 0.1276)

Sorry there are no passes over London.